Aérodrome :
LOGIN :

S'inscrire | Disclaimer

   EN    FR    IT 

 










Légende :    VFR   VFR Marginal   IFR   IFR Intensif   IFR Très Intensif
Visi : 
Plafond : 
>= 8 km
>= 3000ft
5 à 8 km
1000 à 3000 ft
1500m à 5 km
500 à 1000 ft
800 à 1500m
200 à 500 ft
< 800m
< 200 ft
Symboles :   Orages  Brouillard  Fortes neiges  Fortes précipitations  Vent > 20 kt
SIGMETs :   Divers  Orages  Givrage  Turbulence  Onde Orograph.  Cendres Volcan.






- Altitude de l'aérodrome : 289 ft


LFYR - Romorantin Pruniers

DERNIER METAR :
  • 281130Z AUTO 06009KT 030V090 CAVOK 25/13 Q1027 NOSIG

METARs EXPIRÉS :
  • 281100Z AUTO 04007KT 330V090 CAVOK 24/13 Q1027 NOSIG
  • 281030Z AUTO VRB04KT CAVOK 23/13 Q1027 NOSIG
  • 281000Z AUTO 02005KT 320V080 CAVOK 22/12 Q1028 NOSIG
  • 280930Z AUTO 02006KT 330V090 CAVOK 21/12 Q1028 NOSIG
  • 280900Z AUTO 36005KT 310V070 CAVOK 20/12 Q1028 NOSIG
  • 280830Z AUTO 01004KT 330V070 CAVOK 20/12 Q1028 NOSIG

Prévision TAF périmée.



MET'MAP, la Météo Aéronautique d'un coup d'oeil ! - Copyright ORBIFLY Décembre 2007 - Disclaimer

ORBIFLY MET'MAP TEAM :

Programmation & Développement : Alexandra Zaïnal
Sur une idée originale de : Baudouin d'Aumeries
Assistance à la programmation : Marc-Olivier Méhu
Soutien technique & logistique : Manuel Goepfert

Contact : metmap@orbifly.com




SOURCES & CREDITS :

   NOAA